This is the latest recevied weather packets stored in our database for station/object OK1LPD-5. If no packets are shown the sender has not sent any weather packets the latest 10 day(s).
| Time | Temp. | Humidity | Pressure | Rain* | Wind** | Luminosity | Snow |
|---|---|---|---|---|---|---|---|
| 1777368609 | 16.11° C | 47% | 1018.4 hPa | 0 mm | - | - | - |
| 1777368012 | 15.56° C | 49% | 1018.7 hPa | 0 mm | - | - | - |
| 1777367413 | 16.11° C | 47% | 1018.9 hPa | 0 mm | - | - | - |
| 1777366810 | 16.11° C | 46% | 1019.1 hPa | 0 mm | - | - | - |
| 1777366212 | 15.56° C | 49% | 1019.4 hPa | 0 mm | - | - | - |
| 1777365609 | 15.56° C | 48% | 1019.6 hPa | 0 mm | - | - | - |
| 1777365010 | 16.11° C | 50% | 1019.7 hPa | 0 mm | - | - | - |
| 1777364412 | 16.11° C | 54% | 1020 hPa | 0 mm | - | - | - |
| 1777363810 | 15.56° C | 53% | 1020 hPa | 0 mm | - | - | - |
| 1777363210 | 15.56° C | 55% | 1020 hPa | 0 mm | - | - | - |
| 1777362612 | 15° C | 59% | 1020.1 hPa | 0 mm | - | - | - |
| 1777362013 | 13.89° C | 58% | 1020.1 hPa | 0 mm | - | - | - |
| 1777361409 | 12.78° C | 57% | 1020.4 hPa | 0 mm | - | - | - |
| 1777360812 | 11.67° C | 63% | 1020.4 hPa | 0 mm | - | - | - |
| 1777360208 | 11.11° C | 73% | 1020.4 hPa | 0 mm | - | - | - |
| 1777359609 | 10.56° C | 78% | 1020.6 hPa | 0 mm | - | - | - |
| 1777359012 | 10° C | 83% | 1020.6 hPa | 0 mm | - | - | - |
| 1777358409 | 9.44° C | 88% | 1020.5 hPa | 0 mm | - | - | - |
| 1777357809 | 8.89° C | 92% | 1020.5 hPa | 0 mm | - | - | - |
| 1777357211 | 7.78° C | 96% | 1020.5 hPa | 0 mm | - | - | - |
| 1777356609 | 7.22° C | 98% | 1020.7 hPa | 0 mm | - | - | - |
| 1777356009 | 6.67° C | 99% | 1020.7 hPa | 0 mm | - | - | - |
| 1777355412 | 6.67° C | 99% | 1020.5 hPa | 0 mm | - | - | - |
| 1777354809 | 5° C | 99% | 1020.6 hPa | 0 mm | - | - | - |
| 1777354209 | 4.44° C | 99% | 1020.7 hPa | 0 mm | - | - | - |
* Rain latest hour (hover to see other rain measurements)
** Current wind speed in m/s (hover to see current wind gust speed)